Regional Weather Roundup
Issued by NWS

Home | Current Version | Previous Version | Graphics & Text | Print | Product List | Glossary On
Versions: 1 2 3 4 5 6 7 8 9 10 11 12 13 14 15 16 17 18 19 20 21 22 23 24 25 26 27 28 29 30 31 32 33 34 35 36 37 38 39 40 41 42 43 44 45 46 47 48 49 50
468
ASUS45 KCYS 210310
RWRWY

WYOMING REGIONAL WEATHER ROUNDUP
NATIONAL WEATHER SERVICE CHEYENNE WY
900 PM MDT THU JUL 20 2017

NOTE:  "FAIR" INDICATES FEW OR NO CLOUDS BELOW 12,000 FEET
WITH NO SIGNIFICANT WEATHER AND/OR OBSTRUCTIONS TO VISIBILITY.

WYZ001-210400-
YELLOWSTONE NATIONAL PARK

CITY           SKY/WX    TMP DP  RH WIND       PRES   REMARKS
LK YELLOWSTONE   N/A     57  54  89 CALM      30.27R
W YELLOWSTONE  NOT AVBL

$$
WYZ002>013-054>058-071-098>099-210400-
NORTHERN WYOMING

CITY           SKY/WX    TMP DP  RH WIND       PRES   REMARKS
JACKSON        FAIR      64  59  82 CALM      30.17S
CODY           FAIR      70  55  59 SW9       30.02F
GREYBULL       FAIR      71  56  58 S6        29.95F
WORLAND        FAIR      68  60  75 SE16      30.00F
SHERIDAN       FAIR      73  56  54 W10       29.91F
BUFFALO        CLOUDY    74  51  44 SE9       30.01F
GILLETTE       MOCLDY    75  53  46 W21       30.01R
HULETT         TSTM      68  61  77 SE12      30.03R
NEWCASTLE      FAIR      84  50  30 SE17G23   29.94R

$$
WYZ014>020-022>026-101>103-210400-
CENTRAL WYOMING

CITY           SKY/WX    TMP DP  RH WIND       PRES   REMARKS
BIG PINEY      FAIR      61  56  83 W6        30.23S
PINEDALE       FAIR      63  55  77 NW5       30.23F
DUBOIS         FAIR      59  52  77 W6        30.23S
LANDER         FAIR      65  57  75 S18       30.14R
RIVERTON       FAIR      67  59  75 SE3       30.13R
CASPER         CLOUDY    66  56  70 N20G28    30.11R
DOUGLAS        TSTM      74  56  53 VRB3      30.02R

$$
WYZ021-027>030-104>119-210400-
SOUTHERN WYOMING

CITY           SKY/WX    TMP DP  RH WIND       PRES   REMARKS
EVANSTON       FAIR      72  51  47 W9        30.22S
KEMMERER         N/A    N/A N/A N/A NW7       30.23R
FORT BRIDGER   FAIR      77  47  33 W12       30.24R
ROCK SPRINGS   CLOUDY    74  50  42 N9        30.19R
RAWLINS        MOCLDY    71  45  39 N26G38    30.22R
SARATOGA       FAIR      75  45  33 SW7       30.22S
LARAMIE        FAIR      60  53  77 S16       30.28F
CHEYENNE       CLOUDY    75  52  44 W30G39    30.22R
TORRINGTON     FAIR      77  62  59 CALM      29.97R
PINE BLUFFS    FAIR      77  55  47 S5        30.09R

$$




USA.gov is the U.S. government's official web portal to all federal, state and local government web resources and services.